Home   Weather   A Coruña   Past weeks

Flag for Spain Past Weather in A Coruña, Spain — Yesterday and Last 2 Weeks

Now
51 °F

Cool.


Feels Like: 47 °F
Forecast: 54 / 58 °F
Wind: 12 mph from West

Location: La Coruna

Current Time: Feb 28, 2017 at 3:36:03 pm

Latest Report: Feb 28, 2017 at 2:00 pm


Visibility: 8 mi

Pressure: 30.03 "Hg

Humidity: 89%

Dew Point: 48 °F

Location of A CoruñaLocation

Past Weather in A Coruña — Graph

°F

A Coruña Temperature Yesterday

Maximum temperature yesterday: 57 °F (at 1:00 pm)
Minimum temperature yesterday: 50 °F (at 8:00 pm)
Average temperature yesterday: 53 °F

High & Low Weather Summary for the Past Weeks

 TemperatureHumidityPressure
High70 °F (Feb 16, 2:00 pm)98% (Feb 23, 9:00 pm)30.43 "Hg (Feb 23, 9:00 pm)
Low45 °F (Feb 25, 6:00 am)47% (Feb 16, 2:00 pm)29.66 "Hg (Feb 13, 3:00 pm)
Average53 °F83%30.19 "Hg
* Reported Feb 13 3:00 pm — Feb 28 2:00 pm, A Coruña, Weather by CustomWeather, © 2017

Note: Actual official high and low records may vary slightly from our data, if they occured in-between our weather recording intervals... More about our weather records

Advertising

A Coruña Weather History for the Previous 24 Hours

Scroll right to see more
 ConditionsComfort  
Time TempWeatherWind HumidityBarometerVisibility
2:00 pm
Tue, Feb 28
51 °FCool.12 mph89%30.03 "Hg8 mi
1:00 pm50 °FLight rain. Low clouds.8 mph92%30.01 "Hg7 mi
12:00 pm51 °FRain. Cloudy.16 mph93%29.99 "Hg2 mi
11:00 am53 °FLight rain. Cloudy.15 mph90%29.96 "Hg9 mi
10:00 am52 °FLight rain. Low clouds.14 mph95%29.94 "Hg5 mi
9:00 am51 °FRain. Cloudy.20 mph95%29.91 "Hg2 mi
8:00 am51 °FRain. Overcast.12 mph94%29.89 "Hg1 mi
7:00 am51 °FRain. Overcast.14 mph90%29.88 "Hg3 mi
6:00 am51 °FRain. Overcast.16 mph87%29.86 "Hg4 mi
5:00 am51 °FCool.14 mph88%29.87 "Hg7 mi
4:00 am51 °FLight rain. Passing clouds.16 mph83%29.87 "Hg9 mi
3:00 am51 °FDrizzle. Overcast.16 mph83%29.87 "Hg6 mi
2:00 am51 °FCool.15 mph81%29.88 "Hg9 mi
1:00 am50 °FLight rain. Passing clouds.16 mph85%29.90 "Hg9 mi
12:00 am51 °FCool.17 mph80%29.90 "Hg9 mi
11:00 pm
Mon, Feb 27
51 °FFog.15 mph77%29.92 "Hg9 mi
10:00 pm51 °FCool.16 mph81%29.92 "Hg6 mi
9:00 pm51 °FCool.14 mph82%29.92 "Hg10 mi
8:00 pm50 °FCool.16 mph79%29.92 "Hg11 mi
7:00 pm53 °FCool.15 mph78%29.91 "Hg9 mi
6:00 pm52 °FLight rain. Cloudy.15 mph77%29.92 "Hg9 mi
5:00 pm55 °FFog.17 mph72%29.91 "Hg10 mi
4:00 pm54 °FCool.15 mph77%29.91 "Hg12 mi
3:00 pm56 °FDrizzle. Cloudy.16 mph65%29.91 "Hg11 mi
Weather by CustomWeather, © 2017

See weather overviewHow to use our weather pages